Location: *
(32.3300°N, 34.8500°E)
Time: 16:34:11
(UTC+00:00)

CZ-4B R/B - Pass Details

Date: 22 October 2019
Orbit: 487 x 653 km, 97.8° (Epoch: 14 November)

Event Time Altitude Azimuth Distance (km) Brightness Sun altitude
Rises 01:42:45 0° 22° (NNE) 2,710 6.7 -27.4°
Reaches altitude 10° 01:45:04 10° 32° (NNE) 1,786 5.8 -26.9°
Maximum altitude 01:48:33 33° 98° (E) 879 4.4 -26.1°
Drops below altitude 10° 01:51:54 10° 164° (SSE) 1,706 5.5 -25.4°
Sets 01:54:04 0° 174° (S) 2,568 6.3 -25.0°
